Location: DarkSkies Observatory
(42.5924°N, 71.9747°W)
Time: 02:19:09
(UTC-05:00)

Tiangong 2 - Visible Passes

Search period start: 23 November 2017 00:00
Search period end: 03 December 2017 00:00
Orbit: 386 x 392 km, 42.8° (Epoch: 22 November)

Date Brightness Start Highest point End Pass type
(mag) Time Alt. Az. Time Alt. Az. Time Alt. Az.
25 Nov 4.3 05:44:46 10° SSE 05:46:00 12° SE 05:47:14 10° ESE visible
26 Nov 3.0 06:21:20 10° SW 06:24:13 31° SSE 06:27:07 10° E visible
27 Nov 3.6 05:23:42 10° SSW 05:26:08 20° SSE 05:28:36 10° E visible
28 Nov 4.1 04:28:09 13° SE 04:28:09 13° SE 04:29:35 10° ESE visible
28 Nov 1.9 06:01:23 10° WSW 06:04:28 49° SSE 06:07:36 10° E visible
29 Nov 2.5 05:05:31 28° S 05:06:19 33° SSE 05:09:15 10° E visible
30 Nov 4.6 04:10:22 12° ESE 04:10:22 12° ESE 04:10:44 10° E visible
30 Nov 1.2 05:42:41 20° WSW 05:44:45 72° SSE 05:47:57 10° E visible
01 Dec 2.6 04:47:24 37° ESE 04:47:24 37° ESE 04:49:39 10° E visible
01 Dec 1.1 06:20:07 10° W 06:23:19 84° N 06:26:32 10° E visible
02 Dec 1.0 05:24:20 52° W 05:25:01 90° S 05:28:14 10° E visible
